Погода в Боберке

Украина / Львовская область     49°12′03″N   22°48′03″E
темп.,
°C
ветер,
м/с
пор.,
м/с
влажн.,
%
обл.,
%
осадки,
мм/ч
давл.,
гПа
погр.,
м
4 марта, чт
чт423:00+1ююз359423 0.0 1025143
02:00+2ююз4169112 0.0 1023475
05:00+2юз4129052 0.0 1021320
08:00+1ююз379544 0.0 1019206
11:00+6юз397452 0.0 1017384
14:00+8юз486826 0.0 1015537
17:00+6юз387963 0.0 1014418
20:00+4юз269281 0.1 1014234
5 марта, пт
пт523:00+4юз2696100 1.4 1013265
02:00+4ююз2397100 2.8 1012135
05:00+3з1198100 0.6 101229
08:000с2598100 5.8 1012329
11:000с2396100 3.8 1014356
14:00−1ссв5896100 6.8 1016549
17:00−2ссв5896100 2.5 1018598
20:00−5ссв2990100 3.1 1021477
6 марта, сб
сб623:00−7с279067 0.0 1024150
02:00−8сз128833 0.0 102723
05:00−8зсз22900 0.0 102724
08:00−7зсз279614 0.0 1030338
11:00−3ссз477893 0.3 10311215
14:00−2сз466797 0.6 10311524
17:00−3сз3574100 0.2 10311170
20:00−7з118877 0.2 103221
7 марта, вс
вс723:00−7ююз12860 0.0 103221
02:00−8ююз22850 0.0 103128
05:00−7юз311860 0.0 1029399
08:00−5юз414780 0.0 1028484
11:00−1юз510650 0.0 1025741
14:00+1юз510650 0.0 1023804
17:00−1юз512701 0.0 1020689
20:00−3юз514760 0.0 1020436
8 марта, пн
пн823:00−4юз38840 0.0 1020190
02:00−5ююз23876 0.0 101955
05:00−5юз228958 0.0 101823
08:00−4ююз228776 0.0 101870
11:000зюз356995 0.0 10171052
14:00+1зсз467297 0.1 10171191
17:00−1зсз3786100 0.3 1016735
20:00−2зсз279798 0.6 1019614